N323AB KONX-KDCA

Flight info

Callsign N323AB
Flight time 0h 47m
Altitude 26000
Route DCT ORF DCT THHMP CAPSS3
Aircraft SF50/L-V/N

Departure

Time 2026-05-06 00:31
Airport Currituck County Regional Airport (KONX)

Arrival

Time 2026-05-06 01:19
Airport Ronald Reagan Washington National Airport (KDCA)
Time Latitude Longitude Altitude Speed Heading
2026-05-06 00:16 36.40016 -76.01338 23 ft 0 kts 126°
2026-05-06 00:24 36.40012 -76.01333 23 ft 1 kts 160°
2026-05-06 00:24 36.40002 -76.01337 24 ft 2 kts 228°
2026-05-06 00:24 36.40017 -76.01340 23 ft 7 kts 15°
2026-05-06 00:24 36.40087 -76.01296 25 ft 16 kts 37°
2026-05-06 00:25 36.40192 -76.01205 23 ft 18 kts 34°
2026-05-06 00:25 36.40282 -76.01128 23 ft 13 kts 21°
2026-05-06 00:25 36.40337 -76.01082 24 ft 7 kts 33°
2026-05-06 00:25 36.40366 -76.01056 24 ft 5 kts 38°
2026-05-06 00:26 36.40419 -76.01008 25 ft 14 kts 35°
2026-05-06 00:26 36.40497 -76.00940 24 ft 10 kts 35°
2026-05-06 00:26 36.40504 -76.00934 26 ft 0 kts 35°
2026-05-06 00:30 36.40506 -76.00932 25 ft 3 kts 36°
2026-05-06 00:30 36.40558 -76.00922 24 ft 10 kts 316°
2026-05-06 00:30 36.40594 -76.00993 26 ft 11 kts 274°
2026-05-06 00:30 36.40501 -76.01105 26 ft 38 kts 216°
2026-05-06 00:31 36.40095 -76.01451 62 ft 97 kts 213°
2026-05-06 00:31 36.39512 -76.01966 434 ft 112 kts 208°
2026-05-06 00:31 36.38795 -76.02552 791 ft 135 kts 210°
2026-05-06 00:31 36.37984 -76.03232 1473 ft 145 kts 211°
2026-05-06 00:32 36.37133 -76.03947 2296 ft 148 kts 213°
2026-05-06 00:32 36.36257 -76.04721 3033 ft 157 kts 217°
2026-05-06 00:32 36.35360 -76.05587 3695 ft 170 kts 217°
2026-05-06 00:32 36.34390 -76.06505 4316 ft 180 kts 217°
2026-05-06 00:33 36.33560 -76.07636 4947 ft 182 kts 240°
2026-05-06 00:33 36.33262 -76.09209 5641 ft 193 kts 268°
2026-05-06 00:33 36.33686 -76.10861 6073 ft 223 kts 294°
2026-05-06 00:33 36.34752 -76.12449 6236 ft 254 kts 315°
2026-05-06 00:34 36.36318 -76.13563 6630 ft 267 kts 336°
2026-05-06 00:34 36.38172 -76.14002 7005 ft 277 kts 355°
2026-05-06 00:34 36.40092 -76.13677 7389 ft 282 kts 15°
2026-05-06 00:34 36.41926 -76.12849 7774 ft 280 kts 11°
2026-05-06 00:35 36.43833 -76.12988 8147 ft 275 kts 341°
2026-05-06 00:35 36.45660 -76.13664 8562 ft 274 kts 339°
2026-05-06 00:35 36.47532 -76.13968 8953 ft 277 kts 353°
2026-05-06 00:35 36.49437 -76.14233 9366 ft 275 kts 347°
2026-05-06 00:36 36.51309 -76.14679 9777 ft 270 kts 337°
2026-05-06 00:36 36.52795 -76.15978 10125 ft 259 kts 306°
2026-05-06 00:36 36.53840 -76.17732 10489 ft 247 kts 301°
2026-05-06 00:36 36.54945 -76.19356 10826 ft 246 kts 309°
2026-05-06 00:37 36.56204 -76.20794 11162 ft 245 kts 313°
2026-05-06 00:37 36.57467 -76.22195 11495 ft 242 kts 312°
2026-05-06 00:37 36.58682 -76.23634 11826 ft 241 kts 311°
2026-05-06 00:37 36.59890 -76.25073 12171 ft 240 kts 311°
2026-05-06 00:38 36.61085 -76.26477 12503 ft 239 kts 311°
2026-05-06 00:38 36.62296 -76.27899 12838 ft 239 kts 311°
2026-05-06 00:38 36.63500 -76.29320 13176 ft 238 kts 312°
2026-05-06 00:38 36.64705 -76.30737 13509 ft 238 kts 312°
2026-05-06 00:39 36.65905 -76.32152 13841 ft 238 kts 312°
2026-05-06 00:39 36.67102 -76.33567 14140 ft 237 kts 312°
2026-05-06 00:39 36.68300 -76.34980 14430 ft 237 kts 312°
2026-05-06 00:39 36.69494 -76.36390 14730 ft 236 kts 311°
2026-05-06 00:40 36.70671 -76.37780 15021 ft 236 kts 312°
2026-05-06 00:40 36.71858 -76.39184 15315 ft 235 kts 312°
2026-05-06 00:40 36.73045 -76.40588 15590 ft 235 kts 312°
2026-05-06 00:40 36.74232 -76.41990 15885 ft 235 kts 311°
2026-05-06 00:41 36.75416 -76.43390 16178 ft 235 kts 311°
2026-05-06 00:41 36.76602 -76.44795 16450 ft 235 kts 311°
2026-05-06 00:41 36.77792 -76.46204 16700 ft 236 kts 311°
2026-05-06 00:41 36.78985 -76.47617 16955 ft 237 kts 312°
2026-05-06 00:42 36.80182 -76.49038 17211 ft 238 kts 311°
2026-05-06 00:42 36.81384 -76.50464 17442 ft 239 kts 311°
2026-05-06 00:42 36.82567 -76.51866 17674 ft 239 kts 311°
2026-05-06 00:42 36.83776 -76.53303 17912 ft 239 kts 311°
2026-05-06 00:43 36.84980 -76.54735 18153 ft 239 kts 311°
2026-05-06 00:43 36.86185 -76.56164 18381 ft 239 kts 311°
2026-05-06 00:43 36.87390 -76.57596 18586 ft 239 kts 311°
2026-05-06 00:43 36.88592 -76.59026 18792 ft 239 kts 311°
2026-05-06 00:44 36.89794 -76.60453 19000 ft 238 kts 311°
2026-05-06 00:44 36.90993 -76.61882 19208 ft 238 kts 311°
2026-05-06 00:44 36.92187 -76.63310 19417 ft 238 kts 311°
2026-05-06 00:44 36.93386 -76.64736 19608 ft 237 kts 311°
2026-05-06 00:45 36.94577 -76.66156 19812 ft 237 kts 311°
2026-05-06 00:45 36.95768 -76.67578 20027 ft 237 kts 310°
2026-05-06 00:45 36.96958 -76.68999 20259 ft 236 kts 310°
2026-05-06 00:45 36.98130 -76.70398 20475 ft 236 kts 310°
2026-05-06 00:46 36.99317 -76.71817 20697 ft 236 kts 310°
2026-05-06 00:46 37.00504 -76.73232 20920 ft 235 kts 310°
2026-05-06 00:46 37.01685 -76.74642 21144 ft 235 kts 310°
2026-05-06 00:46 37.02868 -76.76057 21372 ft 235 kts 310°
2026-05-06 00:47 37.04045 -76.77463 21596 ft 234 kts 309°
2026-05-06 00:47 37.05219 -76.78869 21823 ft 233 kts 309°
2026-05-06 00:47 37.06393 -76.80272 22063 ft 233 kts 309°
2026-05-06 00:47 37.07559 -76.81672 22290 ft 232 kts 309°
2026-05-06 00:48 37.08707 -76.83045 22528 ft 231 kts 309°
2026-05-06 00:48 37.09867 -76.84439 22765 ft 231 kts 309°
2026-05-06 00:48 37.11023 -76.85828 23004 ft 230 kts 309°
2026-05-06 00:48 37.12180 -76.87212 23251 ft 229 kts 309°
2026-05-06 00:49 37.13329 -76.88592 23494 ft 228 kts 309°
2026-05-06 00:49 37.14473 -76.89966 23710 ft 227 kts 309°
2026-05-06 00:49 37.15613 -76.91335 23911 ft 227 kts 309°
2026-05-06 00:49 37.16748 -76.92700 24115 ft 226 kts 309°
2026-05-06 00:50 37.17881 -76.94059 24317 ft 225 kts 309°
2026-05-06 00:50 37.19005 -76.95413 24520 ft 224 kts 309°
2026-05-06 00:50 37.20127 -76.96764 24728 ft 223 kts 309°
2026-05-06 00:50 37.21229 -76.98088 24935 ft 222 kts 309°
2026-05-06 00:51 37.22341 -76.99429 25148 ft 221 kts 309°
2026-05-06 00:51 37.23450 -77.00766 25361 ft 221 kts 309°
2026-05-06 00:51 37.24555 -77.02100 25591 ft 220 kts 309°
2026-05-06 00:51 37.25655 -77.03430 25806 ft 219 kts 309°
2026-05-06 00:52 37.26757 -77.04757 25986 ft 220 kts 309°
2026-05-06 00:52 37.27881 -77.06122 25986 ft 228 kts 309°
2026-05-06 00:52 37.29040 -77.07527 25994 ft 235 kts 310°
2026-05-06 00:52 37.30233 -77.08966 25995 ft 241 kts 310°
2026-05-06 00:53 37.31457 -77.10438 25993 ft 247 kts 310°
2026-05-06 00:53 37.32702 -77.11956 25994 ft 252 kts 310°
2026-05-06 00:53 37.33958 -77.13488 25990 ft 258 kts 310°
2026-05-06 00:53 37.35270 -77.15071 25990 ft 264 kts 310°
2026-05-06 00:54 37.36611 -77.16675 25989 ft 269 kts 310°
2026-05-06 00:54 37.37968 -77.18314 25988 ft 272 kts 310°
2026-05-06 00:54 37.39493 -77.19771 25983 ft 281 kts 323°
2026-05-06 00:54 37.41310 -77.20790 25976 ft 291 kts 334°
2026-05-06 00:55 37.43330 -77.21279 25975 ft 300 kts 347°
2026-05-06 00:55 37.45413 -77.21545 25979 ft 302 kts 347°
2026-05-06 00:55 37.47480 -77.21829 25981 ft 303 kts 347°
2026-05-06 00:55 37.49584 -77.22114 26000 ft 305 kts 347°
2026-05-06 00:56 37.51703 -77.22394 25985 ft 308 kts 347°
2026-05-06 00:56 37.53839 -77.22678 25985 ft 309 kts 347°
2026-05-06 00:56 37.55977 -77.22964 25983 ft 308 kts 345°
2026-05-06 00:56 37.58090 -77.23248 25976 ft 306 kts 346°
2026-05-06 00:57 37.60213 -77.23529 25974 ft 307 kts 346°
2026-05-06 00:57 37.62335 -77.23812 25978 ft 307 kts 346°
2026-05-06 00:57 37.64466 -77.24098 25978 ft 308 kts 346°
2026-05-06 00:57 37.66594 -77.24384 25977 ft 308 kts 346°
2026-05-06 00:58 37.68700 -77.24667 25977 ft 308 kts 346°
2026-05-06 00:58 37.70833 -77.24954 25977 ft 309 kts 346°
2026-05-06 00:58 37.72970 -77.25240 25977 ft 309 kts 346°
2026-05-06 00:58 37.75106 -77.25528 25978 ft 309 kts 346°
2026-05-06 00:59 37.77244 -77.25814 25978 ft 309 kts 346°
2026-05-06 00:59 37.79383 -77.26103 25976 ft 309 kts 346°
2026-05-06 00:59 37.81522 -77.26392 25971 ft 308 kts 346°
2026-05-06 00:59 37.83654 -77.26680 25975 ft 308 kts 346°
2026-05-06 01:00 37.85790 -77.26964 25944 ft 309 kts 346°
2026-05-06 01:00 37.87947 -77.27257 25584 ft 313 kts 346°
2026-05-06 01:00 37.90108 -77.27545 25223 ft 310 kts 346°
2026-05-06 01:00 37.92244 -77.27832 24868 ft 308 kts 346°
2026-05-06 01:01 37.94387 -77.28127 24526 ft 311 kts 346°
2026-05-06 01:01 37.96549 -77.28420 24190 ft 314 kts 346°
2026-05-06 01:01 37.98731 -77.28712 23837 ft 316 kts 346°
2026-05-06 01:01 38.00894 -77.29002 23496 ft 318 kts 346°
2026-05-06 01:02 38.03096 -77.29303 23087 ft 319 kts 346°
2026-05-06 01:02 38.05308 -77.29601 22686 ft 320 kts 347°
2026-05-06 01:02 38.07558 -77.29585 22274 ft 329 kts 359°
2026-05-06 01:02 38.09825 -77.29012 21878 ft 335 kts
2026-05-06 01:03 38.12090 -77.28278 21497 ft 337 kts
2026-05-06 01:03 38.14373 -77.27569 21121 ft 339 kts
2026-05-06 01:03 38.16672 -77.26855 20747 ft 341 kts
2026-05-06 01:03 38.18978 -77.26126 20377 ft 342 kts
2026-05-06 01:04 38.21261 -77.25404 20035 ft 343 kts
2026-05-06 01:04 38.23583 -77.24666 19675 ft 345 kts
2026-05-06 01:04 38.25913 -77.23923 19317 ft 345 kts
2026-05-06 01:04 38.28246 -77.23184 18966 ft 346 kts
2026-05-06 01:05 38.30583 -77.22444 18602 ft 346 kts
2026-05-06 01:05 38.32915 -77.21693 18254 ft 346 kts 11°
2026-05-06 01:05 38.35162 -77.20538 17850 ft 351 kts 24°
2026-05-06 01:05 38.37359 -77.19229 17449 ft 347 kts 16°
2026-05-06 01:06 38.39657 -77.18363 17060 ft 343 kts 12°
2026-05-06 01:06 38.41938 -77.17490 16691 ft 341 kts 13°
2026-05-06 01:06 38.44173 -77.16604 16221 ft 341 kts 13°
2026-05-06 01:06 38.46419 -77.15732 15730 ft 334 kts 12°
2026-05-06 01:07 38.48627 -77.14886 15239 ft 329 kts 12°
2026-05-06 01:07 38.50811 -77.14046 14755 ft 327 kts 12°
2026-05-06 01:07 38.52980 -77.13205 14280 ft 325 kts 12°
2026-05-06 01:07 38.55135 -77.12369 13815 ft 323 kts 12°
2026-05-06 01:08 38.57281 -77.11539 13296 ft 321 kts 12°
2026-05-06 01:08 38.59406 -77.10718 12778 ft 318 kts 12°
2026-05-06 01:08 38.61512 -77.09910 12269 ft 315 kts 12°
2026-05-06 01:08 38.63614 -77.09101 11707 ft 315 kts 12°
2026-05-06 01:09 38.65698 -77.08296 11138 ft 310 kts 13°
2026-05-06 01:09 38.67739 -77.07507 10557 ft 305 kts 13°
2026-05-06 01:09 38.69802 -77.06991 9999 ft 300 kts 360°
2026-05-06 01:09 38.71861 -77.06822 9430 ft 301 kts 359°
2026-05-06 01:10 38.73942 -77.06612 8842 ft 298 kts 359°
2026-05-06 01:10 38.75981 -77.06790 8254 ft 292 kts 343°
2026-05-06 01:10 38.77893 -77.07556 7676 ft 285 kts 330°
2026-05-06 01:10 38.79596 -77.08800 7111 ft 279 kts 320°
2026-05-06 01:11 38.81225 -77.10154 6563 ft 279 kts 320°
2026-05-06 01:11 38.82819 -77.11445 5999 ft 260 kts 319°
2026-05-06 01:11 38.84130 -77.12856 5416 ft 240 kts 314°
2026-05-06 01:11 38.85734 -77.13555 4819 ft 255 kts 352°
2026-05-06 01:12 38.87482 -77.13464 4245 ft 245 kts 345°
2026-05-06 01:12 38.88925 -77.14335 3680 ft 227 kts 313°
2026-05-06 01:12 38.90120 -77.15641 3131 ft 225 kts 308°
2026-05-06 01:12 38.91277 -77.16924 3010 ft 215 kts 309°
2026-05-06 01:13 38.92429 -77.18225 3009 ft 225 kts 309°
2026-05-06 01:13 38.93641 -77.19499 3003 ft 231 kts 321°
2026-05-06 01:13 38.95249 -77.20038 2989 ft 249 kts 354°
2026-05-06 01:13 38.96898 -77.19515 3081 ft 243 kts 24°
2026-05-06 01:14 38.98057 -77.16150 2949 ft 191 kts 114°
2026-05-06 01:14 38.97410 -77.14810 2699 ft 168 kts 145°
2026-05-06 01:14 38.96583 -77.13813 2418 ft 159 kts 152°
2026-05-06 01:15 38.95687 -77.13034 2085 ft 154 kts 162°
2026-05-06 01:15 38.94731 -77.12473 1690 ft 154 kts 164°
2026-05-06 01:15 38.93732 -77.11933 1309 ft 154 kts 164°
2026-05-06 01:15 38.92845 -77.11239 1180 ft 149 kts 150°
2026-05-06 01:16 38.92006 -77.10436 1068 ft 148 kts 149°
2026-05-06 01:16 38.91235 -77.09587 1074 ft 144 kts 144°
2026-05-06 01:16 38.90694 -77.08562 1069 ft 134 kts 118°
2026-05-06 01:16 38.90449 -77.07468 988 ft 122 kts 120°
2026-05-06 01:17 38.89991 -77.06589 718 ft 124 kts 139°
2026-05-06 01:17 38.89363 -77.05896 655 ft 116 kts 151°
2026-05-06 01:17 38.88711 -77.05345 510 ft 110 kts 142°
2026-05-06 01:17 38.88169 -77.04690 505 ft 108 kts 143°
2026-05-06 01:18 38.87559 -77.04134 433 ft 110 kts 160°
2026-05-06 01:18 38.86832 -77.03921 203 ft 107 kts 178°
2026-05-06 01:18 38.86113 -77.03877 60 ft 96 kts 177°
2026-05-06 01:18 38.85541 -77.03817 20 ft 68 kts 176°
2026-05-06 01:19 38.85329 -77.03798 16 ft 15 kts 183°
2026-05-06 01:19 38.85285 -77.03810 16 ft 1 kts 232°
2026-05-06 01:19 38.85264 -77.03847 15 ft 7 kts 246°
2026-05-06 01:19 38.85261 -77.03874 15 ft 0 kts 267°
2026-05-06 01:21 38.85261 -77.03875 15 ft 1 kts 267°
2026-05-06 01:21 38.85237 -77.03919 15 ft 15 kts 205°
2026-05-06 01:21 38.85127 -77.03915 16 ft 17 kts 176°
2026-05-06 01:22 38.85005 -77.03902 15 ft 18 kts 175°
2026-05-06 01:22 38.84889 -77.03890 14 ft 13 kts 174°
2026-05-06 01:22 38.84812 -77.03883 17 ft 9 kts 176°
2026-05-06 01:22 38.84751 -77.03895 18 ft 9 kts 201°
2026-05-06 01:23 38.84686 -77.03934 19 ft 13 kts 205°
2026-05-06 01:23 38.84603 -77.03987 19 ft 8 kts 214°
2026-05-06 01:23 38.84572 -77.04021 21 ft 5 kts 230°
2026-05-06 01:23 38.84544 -77.04086 22 ft 13 kts 253°
2026-05-06 01:24 38.84546 -77.04139 22 ft 3 kts 326°
2026-05-06 01:24 38.84581 -77.04191 21 ft 15 kts 261°
2026-05-06 01:24 38.84575 -77.04348 18 ft 18 kts 277°
2026-05-06 01:24 38.84568 -77.04488 18 ft 13 kts 275°
2026-05-06 01:25 38.84561 -77.04528 17 ft 2 kts 181°
2026-05-06 01:25 38.84548 -77.04520 17 ft 0 kts 139°